Weather History for KHVS - December, 2013

Change the Weather History Date:

Friday, December 6, 2013

  Actual Average (KFLO) Record (KFLO)
Temperature  
Mean Temperature 71 °F 49 °F  
Max Temperature 80 °F 60 °F 81 °F (1998)
Min Temperature 62 °F 38 °F 23 °F (1987)
Degree Days  
Heating Degree Days 0 16  
Month to date heating degree days 92  
Since 1 July heating degree days 514  
Cooling Degree Days 6 0  
Month to date cooling degree days 0  
Year to date cooling degree days 2059  
Growing Degree Days 21 (Base 50)    
Moisture  
Dew Point 65 °F    
Average Humidity 78    
Maximum Humidity 100    
Minimum Humidity 54    
Precipitation  
Precipitation 0.00 in 0.09 in 0.85 in (1983)
Month to date precipitation 0.54  
Year to date precipitation 40.44  
Sea Level Pressure  
Sea Level Pressure 30.08 in    
Wind  
Wind Speed 7 mph (SSW)    
Max Wind Speed 14 mph    
Max Gust Speed 22 mph    
Visibility 10 miles    
Events      
T = Trace of Precipitation, MM = Missing Value Source: NWS Daily Summary

Daily Weather History Graph

Daily Weather History Graph

Search for Another Location

Airport or City:

Trip Planner

Search our weather history database for the weather conditions in past years. The results will help you decide how hot, cold, wet, or windy it might be!

Date:

Astronomy

Dec. 06, 2013 Rise Set
Actual Time 7:13 AM EST 5:10 PM EST
Civil Twilight 6:45 AM EST 5:37 PM EST
Nautical Twilight 6:14 AM EST 6:09 PM EST
Astronomical Twilight 5:43 AM EST 6:39 PM EST
Moon 10:23 AM EST (12/6) 9:33 PM EST (12/6)
Length of Visible Light 10h 52m
Length of Day
9h 57m
Waxing Crescent, 19% of the Moon is Illuminated
Dec 6
Waxing Crescent
Dec 9
First Quarter
Dec 17
Full
Dec 25
Last Quarter
Jan 1
New

Hourly Weather History & Observations

Time (EST) Temp. Heat Index Dew Point Humidity Pressure Visibility Wind Dir Wind Speed Gust Speed Precip Events Conditions
12:15 AM 68.0 °F - 68.0 °F 100% 30.09 in 10.0 mi South 6.9 mph - N/A   Overcast
12:35 AM 68.0 °F - 68.0 °F 100% 30.08 in 10.0 mi SSW 5.8 mph - N/A   Scattered Clouds
12:55 AM 68.0 °F - 68.0 °F 100% 30.08 in 10.0 mi SSW 8.1 mph - N/A   Scattered Clouds
1:15 AM 68.0 °F - 68.0 °F 100% 30.09 in 10.0 mi SSW 6.9 mph - N/A   Scattered Clouds
1:35 AM 68.0 °F - 68.0 °F 100% 30.08 in 10.0 mi SSW 6.9 mph - N/A   Mostly Cloudy
1:55 AM 66.2 °F - 66.2 °F 100% 30.08 in 10.0 mi SSW 6.9 mph - N/A   Scattered Clouds
2:15 AM 66.2 °F - 66.2 °F 100% 30.09 in 10.0 mi SSW 6.9 mph - N/A   Clear
6:35 AM 62.6 °F - - N/A% 30.10 in 7.0 mi SSW 3.5 mph - N/A   Clear
6:55 AM 62.6 °F - - N/A% 30.10 in 7.0 mi SSW 3.5 mph - N/A   Clear
7:15 AM 62.6 °F - - N/A% 30.10 in 7.0 mi SSW 4.6 mph - N/A   Clear
7:35 AM 62.6 °F - - N/A% 30.11 in 5.0 mi South 4.6 mph - N/A   Clear
7:55 AM 62.6 °F - - N/A% 30.11 in 5.0 mi South 5.8 mph - N/A   Clear
8:15 AM 62.6 °F - - N/A% 30.11 in 10.0 mi SSW 6.9 mph - N/A   Scattered Clouds
8:35 AM 64.4 °F - - N/A% 30.12 in 10.0 mi SSW 5.8 mph - N/A   Scattered Clouds
8:55 AM 66.2 °F - 66.2 °F 100% 30.13 in 10.0 mi SSW 6.9 mph - N/A   Clear
9:15 AM 68.0 °F - 68.0 °F 100% 30.13 in 10.0 mi SSW 8.1 mph - N/A   Clear
9:35 AM 68.0 °F - 68.0 °F 100% 30.14 in 10.0 mi SSW 6.9 mph - N/A   Clear
9:55 AM 69.8 °F - 68.0 °F 94% 30.15 in 10.0 mi SW 8.1 mph - N/A   Clear
10:15 AM 71.6 °F - 64.4 °F 78% 30.14 in 10.0 mi SSW 8.1 mph - N/A   Clear
10:35 AM 73.4 °F - 64.4 °F 73% 30.14 in 10.0 mi SW 9.2 mph 17.3 mph N/A   Clear
10:55 AM 75.2 °F - 64.4 °F 69% 30.15 in 10.0 mi SW 10.4 mph 16.1 mph N/A   Clear
11:15 AM 75.2 °F - 64.4 °F 69% 30.14 in 10.0 mi SW 10.4 mph 16.1 mph N/A   Clear
11:35 AM 77.0 °F - 64.4 °F 65% 30.13 in 10.0 mi SW 9.2 mph 17.3 mph N/A   Clear
11:55 AM 77.0 °F - 64.4 °F 65% 30.12 in 10.0 mi SSW 12.7 mph 17.3 mph N/A   Scattered Clouds
12:15 PM 78.8 °F - 64.4 °F 61% 30.11 in 10.0 mi SSW 11.5 mph - N/A   Scattered Clouds
12:35 PM 78.8 °F - 64.4 °F 61% 30.10 in 10.0 mi SSW 11.5 mph 18.4 mph N/A   Clear
12:55 PM 78.8 °F - 62.6 °F 57% 30.09 in 10.0 mi SSW 12.7 mph 21.9 mph N/A   Clear
1:15 PM 78.8 °F - 62.6 °F 57% 30.08 in 10.0 mi SSW 9.2 mph - N/A   Mostly Cloudy
1:35 PM 78.8 °F - 62.6 °F 57% 30.07 in 10.0 mi SSW 10.4 mph 16.1 mph N/A   Overcast
1:55 PM 78.8 °F - 62.6 °F 57% 30.06 in 10.0 mi SSW 11.5 mph - N/A   Overcast
2:15 PM 80.6 °F 81.8 °F 62.6 °F 54% 30.05 in 10.0 mi SSW 12.7 mph 18.4 mph N/A   Scattered Clouds
2:35 PM 80.6 °F 81.8 °F 62.6 °F 54% 30.05 in 10.0 mi SSW 10.4 mph 18.4 mph N/A   Clear
2:55 PM 80.6 °F 81.8 °F 62.6 °F 54% 30.05 in 10.0 mi SW 12.7 mph 17.3 mph N/A   Clear
3:15 PM 80.6 °F 81.8 °F 62.6 °F 54% 30.04 in 10.0 mi SSW 13.8 mph 21.9 mph N/A   Scattered Clouds
3:35 PM 78.8 °F - 62.6 °F 57% 30.05 in 10.0 mi SSW 9.2 mph 18.4 mph N/A   Scattered Clouds
3:55 PM 78.8 °F - 62.6 °F 57% 30.05 in 10.0 mi SSW 8.1 mph 21.9 mph N/A   Scattered Clouds
4:15 PM 77.0 °F - 62.6 °F 61% 30.05 in 10.0 mi South 9.2 mph - N/A   Clear
4:35 PM 77.0 °F - 62.6 °F 61% 30.05 in 10.0 mi SSW 8.1 mph - N/A   Clear
4:55 PM 77.0 °F - 62.6 °F 61% 30.06 in 10.0 mi SSW 6.9 mph - N/A   Clear
5:15 PM 73.4 °F - 62.6 °F 69% 30.06 in 10.0 mi SSW 6.9 mph - N/A   Clear
5:35 PM 73.4 °F - 62.6 °F 69% 30.06 in 10.0 mi SSW 4.6 mph - N/A   Clear
6:55 PM 71.6 °F - 62.6 °F 73% 30.06 in 10.0 mi South 3.5 mph - N/A   Clear
7:15 PM 69.8 °F - 62.6 °F 78% 30.06 in 10.0 mi South 4.6 mph - N/A   Clear
7:35 PM 69.8 °F - 64.4 °F 83% 30.07 in 10.0 mi South 5.8 mph - N/A   Clear
7:55 PM 69.8 °F - 64.4 °F 83% 30.06 in 10.0 mi South 6.9 mph - N/A   Clear
8:15 PM 69.8 °F - 64.4 °F 83% 30.06 in 10.0 mi South 6.9 mph - N/A   Clear
8:35 PM 69.8 °F - 64.4 °F 83% 30.06 in 10.0 mi South 6.9 mph - N/A   Clear
8:55 PM 69.8 °F - 64.4 °F 83% 30.06 in 10.0 mi South 9.2 mph - N/A   Clear
9:15 PM 69.8 °F - 64.4 °F 83% 30.06 in 10.0 mi South 6.9 mph - N/A   Clear
9:35 PM 69.8 °F - 64.4 °F 83% 30.06 in 10.0 mi South 8.1 mph - N/A   Clear
9:55 PM 69.8 °F - 66.2 °F 88% 30.06 in 10.0 mi South 6.9 mph - N/A   Clear
10:15 PM 69.8 °F - 66.2 °F 88% 30.06 in 10.0 mi South 8.1 mph - N/A   Clear
10:35 PM 69.8 °F - 68.0 °F 94% 30.07 in 10.0 mi South 8.1 mph - N/A   Clear
10:55 PM 69.8 °F - 68.0 °F 94% 30.07 in 10.0 mi South 6.9 mph - N/A   Clear
11:15 PM 69.8 °F - 69.8 °F 100% 30.08 in 10.0 mi SSW 6.9 mph - N/A   Clear
11:35 PM 68.0 °F - 68.0 °F 100% 30.08 in 10.0 mi SSW 5.8 mph - N/A   Clear
11:55 PM 68.0 °F - 68.0 °F 100% 30.08 in 10.0 mi South 4.6 mph - N/A   Clear